Weather reports worldwide

Advertisment
Drumalbin, United Kingdom (3155): temperature & dewpoint: 26.10.2020 01:00:00 - 01.11.2020 01:00:00 (GMT)Drumalbin, United Kingdom (3155): temperature -20cm & temperature -100cm: 26.10.2020 01:00:00 - 01.11.2020 01:00:00 (GMT)Drumalbin, United Kingdom (3155): wind speed & gusts: 26.10.2020 01:00:00 - 01.11.2020 01:00:00 (GMT)Drumalbin, United Kingdom (3155): wind direction: 26.10.2020 01:00:00 - 01.11.2020 01:00:00 (GMT)Drumalbin, United Kingdom (3155): reduced air pressure: 26.10.2020 01:00:00 - 01.11.2020 01:00:00 (GMT)Drumalbin, United Kingdom (3155): visibility: 26.10.2020 01:00:00 - 01.11.2020 01:00:00 (GMT)Drumalbin, United Kingdom (3155): precipitation: 26.10.2020 01:00:00 - 01.11.2020 01:00:00 (GMT)
Date & Time tt [°C] td [°C] tt -20cm [°C] tt -100cm [°C] ff [km/h] ff [kn] fx [km/h] fx [kn] dd ppp [hPa] vv [km] rr [mm]
01.11.2020 01:00:00 - - - - - - - - - - - -
01.11.2020 00:00:00 5,9 3,2 - - 46 25 65 35 SW 997,1 24 0,0
31.10.2020 23:00:00 5,0 2,8 - - 31 17 63 34 SSW 997,9 26 0,0
31.10.2020 22:00:00 6,2 3,7 - - 29 16 59 32 SW 997,4 23 0,0
31.10.2020 21:00:00 6,4 4,7 - - 46 25 67 36 WSW 998,3 7 0,4
31.10.2020 20:00:00 7,2 5,4 - - 29 16 63 34 WSW 998,3 27 0,4
31.10.2020 19:00:00 7,7 5,4 - - 35 19 72 39 SW 996,8 9 0,0
31.10.2020 18:00:00 8,6 5,2 - - 50 27 72 39 WSW 995,1 35 0,0
31.10.2020 17:00:00 8,4 5,6 - - 52 28 81 44 WSW 992,8 30 0,0
31.10.2020 16:00:00 9,4 5,2 - - 52 28 81 44 WSW 991,9 35 0,0
31.10.2020 15:00:00 9,7 5,1 - - 54 29 78 42 SW 990,7 45 0,0
31.10.2020 14:00:00 10,0 5,7 - - 54 29 89 48 SW 990,1 60 0,0
31.10.2020 13:00:00 10,8 8,4 - - 44 24 89 48 SW 989,1 40 0,6
31.10.2020 12:00:00 13,3 12,3 - - 68 37 106 57 SSW 986,4 8 0,8
31.10.2020 11:00:00 12,4 11,7 - - 63 34 91 49 S 987,4 2,3 2,8
31.10.2020 10:00:00 12,0 10,9 - - 57 31 89 48 S 989,8 3,7 0,6
31.10.2020 09:00:00 12,7 11,0 9,0 9,7 63 34 102 55 S 991,9 70 0,8
31.10.2020 08:00:00 12,3 11,5 - - 52 28 74 40 S 994,5 2,2 1,2
31.10.2020 07:00:00 11,5 10,7 - - 52 28 76 41 S 996,3 2,5 0,4
31.10.2020 06:00:00 11,0 10,1 - - 46 25 76 41 SSE 998,0 3,4 1,2
31.10.2020 05:00:00 10,1 8,9 - - 59 32 78 42 SSE 1000,2 17 0,4
31.10.2020 04:00:00 8,4 7,2 - - 44 24 63 34 SSE 1002,5 7 0,0
31.10.2020 03:00:00 7,1 3,9 - - 15 8 - - ESE 1005,9 65 0,0
31.10.2020 02:00:00 6,6 3,5 - - 13 7 - - ESE 1009,0 50 0,0
31.10.2020 01:00:00 6,4 3,9 - - 11 6 - - ESE 1011,6 40 0,0
31.10.2020 00:00:00 6,6 3,8 - - 21 11 65 35 SE 1011,1 40 0,0
30.10.2020 23:00:00 5,7 3,7 - - 13 7 - - SSE 1013,5 35 0,0
30.10.2020 22:00:00 4,8 3,6 - - 24 13 - - S 1014,8 30 0,0
30.10.2020 21:00:00 4,1 2,7 - - 13 7 - - SSW 1014,9 30 0,0
30.10.2020 20:00:00 4,7 3,1 - - 16 9 - - SSW 1014,9 40 0,0
30.10.2020 19:00:00 5,6 3,8 - - 16 9 - - SSW 1014,8 40 0,0
30.10.2020 18:00:00 5,6 3,8 - - 18 10 - - SSW 1014,2 35 0,0
30.10.2020 17:00:00 7,1 4,1 - - 18 10 - - SW 1013,5 35 0,0
30.10.2020 16:00:00 7,7 4,5 - - 22 12 - - W 1013,1 40 0,0
30.10.2020 15:00:00 8,9 5,0 - - 26 14 - - W 1012,0 35 0,0
30.10.2020 14:00:00 8,3 4,7 - - 29 16 - - W 1011,1 35 0,0
30.10.2020 13:00:00 9,4 6,0 - - 26 14 - - W 1010,5 35 0,0
30.10.2020 12:00:00 8,3 5,4 - - 26 14 - - W 1009,8 30 0,0
30.10.2020 11:00:00 8,1 6,1 - - 21 11 - - W 1008,7 29 0,0
30.10.2020 10:00:00 8,1 7,2 - - 22 12 - - W 1007,6 30 0,0
30.10.2020 09:00:00 7,8 7,1 9,0 9,7 29 16 - - WNW 1006,9 5 0,2
30.10.2020 08:00:00 8,5 7,2 - - 31 17 52 28 W 1005,5 50 0,0
30.10.2020 07:00:00 8,7 7,8 - - 39 21 52 28 W 1004,4 4,6 0,0
30.10.2020 06:00:00 9,1 8,4 - - 41 22 55 30 W 1002,8 13 0,0
30.10.2020 05:00:00 9,5 9,0 - - 39 21 65 35 W 1001,5 12 0,0
30.10.2020 04:00:00 10,5 8,8 - - 46 25 74 40 W 1000,7 45 0,0
30.10.2020 03:00:00 12,0 10,2 - - 41 22 68 37 WSW 999,0 45 0,0
30.10.2020 02:00:00 13,2 10,8 - - 44 24 63 34 WSW 997,8 55 0,0
30.10.2020 01:00:00 13,5 11,4 - - 42 23 65 35 WSW 997,1 65 0,2
30.10.2020 00:00:00 13,2 11,8 - - 41 22 61 33 SW 996,7 19 0,0
29.10.2020 23:00:00 13,0 11,8 - - 44 24 67 36 SW 996,3 55 0,0
29.10.2020 22:00:00 13,0 11,9 - - 46 25 67 36 SW 996,5 13 0,0
29.10.2020 21:00:00 12,9 12,0 - - 44 24 63 34 SW 996,4 5 0,2
29.10.2020 20:00:00 12,9 12,0 - - 48 26 70 38 SW 996,1 8 0,2
29.10.2020 19:00:00 12,6 11,9 - - 37 20 50 27 SW 996,4 40 0,2
29.10.2020 18:00:00 12,5 11,8 - - 35 19 54 29 SW 996,6 19 2,2
29.10.2020 17:00:00 12,4 11,7 - - 31 17 46 25 SW 996,5 6 0,8
29.10.2020 16:00:00 12,2 11,6 - - 28 15 - - SW 996,3 7 1,0
29.10.2020 15:00:00 11,7 11,2 - - 28 15 - - SSW 996,4 3,8 0,6
29.10.2020 14:00:00 10,6 10,0 - - 34 18 50 27 S 996,8 14 0,2
29.10.2020 13:00:00 9,3 8,6 - - 31 17 46 25 S 997,7 27 0,0
29.10.2020 12:00:00 9,0 8,1 - - 37 20 54 29 S 998,6 25 0,2
29.10.2020 11:00:00 8,4 7,7 - - 35 19 50 27 S 999,2 30 0,2
29.10.2020 10:00:00 7,4 6,5 - - 34 18 - - S 1000,6 18 0,2
29.10.2020 09:00:00 6,6 5,5 8,7 9,9 21 11 - - SSW 1001,8 16 0,0
29.10.2020 08:00:00 6,1 4,8 - - 29 16 - - S 1002,3 22 0,0
29.10.2020 07:00:00 4,9 3,7 - - 28 15 - - S 1002,4 21 0,0
29.10.2020 06:00:00 4,8 3,7 - - 26 14 - - SSW 1002,7 21 0,0
29.10.2020 05:00:00 5,4 4,1 - - 22 12 - - SW 1002,2 18 0,0
29.10.2020 04:00:00 5,9 4,7 - - 28 15 - - WSW 1001,3 19 0,0
29.10.2020 03:00:00 6,5 5,3 - - 24 13 - - WSW 1000,5 19 0,4
29.10.2020 02:00:00 6,6 5,6 - - 24 13 - - WSW 999,7 21 0,0
29.10.2020 01:00:00 6,7 5,6 - - 31 17 46 25 W 998,8 15 0,2
29.10.2020 00:00:00 6,7 5,9 - - 31 17 52 28 W 997,9 3,4 0,8
28.10.2020 23:00:00 6,6 5,5 - - 29 16 - - WSW 996,5 13 0,0
28.10.2020 22:00:00 6,3 5,3 - - 29 16 46 25 WSW 995,6 13 0,6
28.10.2020 21:00:00 5,9 4,7 - - 31 17 - - SW 995,0 7 0,4
28.10.2020 20:00:00 6,1 4,1 - - 26 14 - - SW 994,4 21 0,0
28.10.2020 19:00:00 5,7 4,0 - - 31 17 - - SW 993,8 29 0,0
28.10.2020 18:00:00 5,9 4,5 - - 21 11 - - SW 993,4 35 1,2
28.10.2020 17:00:00 6,5 4,9 - - 18 10 - - SW 992,6 25 0,2
28.10.2020 16:00:00 7,2 4,4 - - 21 11 - - WSW 991,8 30 0,0
28.10.2020 15:00:00 7,9 3,9 - - 29 16 - - WSW 991,1 30 0,0
28.10.2020 14:00:00 7,8 4,1 - - 26 14 46 25 WSW 991,0 35 0,0
28.10.2020 13:00:00 7,5 4,2 - - 29 16 - - SW 990,7 45 0,0
28.10.2020 12:00:00 7,2 4,1 - - 26 14 - - SW 990,7 50 0,0
28.10.2020 11:00:00 7,2 4,1 - - 34 18 52 28 SW 990,3 50 0,0
28.10.2020 10:00:00 7,3 4,9 - - 22 12 - - SW 989,9 35 0,0
28.10.2020 09:00:00 6,4 4,2 9,0 10,0 35 19 52 28 SW 989,0 40 0,0
28.10.2020 08:00:00 5,7 3,7 - - 31 17 - - SW 988,9 35 0,0
28.10.2020 07:00:00 5,7 4,1 - - 22 12 - - SW 988,5 35 0,0
28.10.2020 06:00:00 5,8 3,8 - - 18 10 - - SW 988,4 29 0,0
28.10.2020 05:00:00 6,2 4,0 - - 24 13 - - SW 988,1 30 0,0
28.10.2020 04:00:00 6,3 4,1 - - 29 16 52 28 SW 987,7 30 0,0
28.10.2020 03:00:00 5,9 3,9 - - 29 16 50 27 SW 987,8 30 0,0
28.10.2020 02:00:00 6,1 4,0 - - 29 16 - - SW 988,1 40 0,0
28.10.2020 01:00:00 6,0 4,0 - - 28 15 - - SW 987,9 30 0,0
28.10.2020 00:00:00 6,1 4,3 - - 29 16 52 28 SW 987,7 35 0,0
27.10.2020 23:00:00 5,6 3,9 - - 26 14 - - SW 987,4 29 0,0
27.10.2020 22:00:00 5,3 3,8 - - 28 15 - - SW 987,5 29 0,0
27.10.2020 21:00:00 5,9 4,2 - - 26 14 - - WSW 987,1 26 0,0
27.10.2020 20:00:00 5,6 4,5 - - 15 8 - - SW 986,7 22 0,2
27.10.2020 19:00:00 6,1 5,1 - - 21 11 - - WSW 986,5 17 0,0
27.10.2020 18:00:00 6,4 5,4 - - 24 13 - - W 986,0 24 0,6
27.10.2020 17:00:00 7,0 6,2 - - 24 13 - - W 985,0 14 0,0
27.10.2020 16:00:00 7,3 6,5 - - 31 17 - - WSW 984,7 9 3,4
27.10.2020 15:00:00 8,1 7,2 - - 21 11 - - S 983,7 9 1,0
27.10.2020 14:00:00 8,5 7,4 - - 18 10 46 25 SSE 984,2 7 0,2
27.10.2020 13:00:00 8,3 6,8 - - 29 16 - - SSE 985,2 15 0,0
27.10.2020 12:00:00 8,1 6,3 - - 28 15 50 27 SSE 986,7 50 0,0
27.10.2020 11:00:00 7,4 6,3 - - 35 19 50 27 S 987,8 60 0,2
27.10.2020 10:00:00 7,0 6,1 - - 26 14 - - S 989,1 9 0,0
27.10.2020 09:00:00 6,8 4,9 9,2 10,0 16 9 - - S 989,9 40 0,0
27.10.2020 08:00:00 5,6 4,7 - - 18 10 - - S 990,9 40 0,0
27.10.2020 07:00:00 5,2 4,3 - - 15 8 - - SSW 991,5 40 0,0
27.10.2020 06:00:00 5,3 4,2 - - 16 9 - - SSW 992,0 40 0,0
27.10.2020 05:00:00 6,3 5,5 - - 18 10 - - SW 992,3 40 0,0
27.10.2020 04:00:00 6,1 5,5 - - 21 11 - - SW 992,5 30 0,0
27.10.2020 03:00:00 6,0 5,3 - - 18 10 - - SW 993,0 26 0,0
27.10.2020 02:00:00 6,1 5,0 - - 21 11 - - WSW 993,3 30 0,0
27.10.2020 01:00:00 6,9 5,5 - - 16 9 - - WSW 993,2 29 0,0
27.10.2020 00:00:00 7,4 6,0 - - 22 12 - - W 993,3 25 0,0
26.10.2020 23:00:00 7,4 6,0 - - 22 12 - - W 993,2 23 0,0
26.10.2020 22:00:00 7,3 6,0 - - 22 12 - - W 993,2 23 0,0
26.10.2020 21:00:00 7,2 5,9 - - 26 14 - - W 992,7 23 0,0
26.10.2020 20:00:00 7,6 6,2 - - 28 15 - - W 992,2 30 0,0
26.10.2020 19:00:00 7,4 6,2 - - 26 14 - - WNW 991,6 30 0,0
26.10.2020 18:00:00 7,9 6,4 - - 29 16 - - WNW 990,8 35 0,0
26.10.2020 17:00:00 8,2 6,7 - - 28 15 - - WNW 990,3 40 0,0
26.10.2020 16:00:00 8,7 6,8 - - 34 18 55 30 WNW 989,2 50 0,0
26.10.2020 15:00:00 8,6 7,3 - - 34 18 50 27 W 988,5 40 0,0
26.10.2020 14:00:00 8,5 7,3 - - 35 19 48 26 W 987,9 40 0,0
26.10.2020 13:00:00 8,4 7,2 - - 34 18 52 28 W 987,5 45 0,0
26.10.2020 12:00:00 8,6 6,9 - - 37 20 59 32 W 987,1 40 0,0
26.10.2020 11:00:00 8,5 6,9 - - 35 19 46 25 W 986,4 25 0,0
26.10.2020 10:00:00 8,1 7,0 - - 34 18 - - W 986,0 35 0,0
26.10.2020 09:00:00 7,7 7,1 9,2 10,0 21 11 - - W 985,6 75 0,4
26.10.2020 08:00:00 7,3 6,6 - - 21 11 - - WSW 985,1 3,7 1,8
26.10.2020 07:00:00 7,2 6,7 - - 21 11 - - SSW 984,1 1,8 0,4
26.10.2020 06:00:00 6,9 6,2 - - 21 11 - - SSW 983,8 23 0,0
26.10.2020 05:00:00 6,8 6,0 - - 24 13 - - SW 983,8 35 0,0
26.10.2020 04:00:00 6,9 5,8 - - 26 14 - - SSW 983,4 60 0,0
26.10.2020 03:00:00 7,2 6,5 - - 22 12 - - SW 983,8 7 1,6
26.10.2020 02:00:00 7,3 6,5 - - 29 16 48 26 SSW 984,1 8 0,6
26.10.2020 01:00:00 7,6 5,7 - - 35 19 48 26 SSW 983,9 30 0,0

tt = temperature
td = dewpoint
tt -20cm = temperature -20cm
tt -100cm = temperature -100cm
ff = wind speed
fx = gusts
dd = wind direction
ppp = reduced air pressure
vv = visibility
rr = precipitation

Next stations